User: anonymous   Login
Location: Hamburg
(53.5500°N, 10.0000°E)
Time: 02:10:32
(UTC+01:00)
Language:

Iridium 10 - Orbit

View from above orbital plane
View from above orbital plane
View from above satellite
View from above satellite

Ground track
Ground track

The orbit data is extracted from the following two-line orbital elements,

1 24839U 97030D   16037.54740600  .00000032  00000-0  45189-5 0  9995
2 24839  86.3973 197.6526 0001997  93.6060 310.3655 14.34218500975776
Epoch (UTC): 06 February 2016 13:08:15
Eccentricity: 0.0001997
inclination: 86.3973°
perigee height: 776 km
apogee height: 779 km
right ascension of ascending node: 197.6526°
argument of perigee: 93.6060°
revolutions per day: 14.34218500
mean anomaly at epoch: 310.3655°
orbit number at epoch: 97577

The dashed part of the orbit path shows where the satellite is in the earth's shadow,  

DLR